Location: Helsinki
(60.1699°N, 24.9384°E)
Time: 16:40:50
(UTC+02:00)

S-56A Canister/Altair - Pass Details

Date: 28 October 2020
Orbit: 633 x 2500 km, 38.9° (Epoch: 29 November)

Event Time Altitude Azimuth Distance (km) Brightness Sun altitude
Rises 11:13:35 0° 253° (WSW) 4,415 11.5 15.8°
Reaches altitude 10° 11:18:29 10° 228° (SW) 3,844 11.6 15.9°
Maximum altitude 11:22:39 13° 204° (SSW) 3,894 12.2 16.0°
Drops below altitude 10° 11:27:24 10° 180° (S) 4,476 13.7 16.1°
Sets 11:34:16 0° 158° (SSE) 5,843 13.6 16.3°
